GFSNW_850_thetae_057.txt.gz
Theta_e
300 301 301 301 302 302 304 307 314 315 313 311 308 309 311 315 315 317 316 317 316 316 317 319 319 322 323 324 322 319 316 315 318 319 320 322 320 320 318 319 320 322 324 327
300 301 301 301 301 302 303 306 312 315 312 310 309 309 312 314 313 313 315 318 318 318 317 318 319 321 322 324 326 326 319 316 318 318 318 320 327 324 319 316 316 325 327 327
300 301 301 302 301 301 303 308 318 318 315 312 310 312 312 313 316 315 316 316 317 316 317 316 318 319 321 321 325 326 321 316 317 318 319 322 327 327 324 321 323 323 323 330
300 301 301 302 301 301 304 309 313 317 314 313 312 311 313 313 313 317 316 316 316 317 317 317 317 320 319 320 323 325 320 318 323 322 323 324 326 326 325 326 323 327 325 334
300 301 301 301 301 302 310 310 316 315 316 316 314 312 312 314 315 316 319 317 317 316 316 317 322 323 320 321 320 320 322 327 323 323 325 327 327 326 327 328 327 328 334 336
300 301 300 301 301 302 312 315 314 314 315 315 314 313 316 317 317 319 320 320 318 321 323 323 323 324 323 321 322 321 325 323 327 328 325 326 321 325 327 329 330 329 334 331
301 301 299 301 300 301 306 312 313 314 314 314 316 316 315 317 318 317 319 320 322 324 324 323 322 320 321 320 320 320 320 320 327 330 325 326 321 326 328 334 339 337 331 329
301 301 299 300 300 300 302 312 311 312 312 315 315 315 315 318 319 320 321 323 323 324 322 318 317 317 317 319 319 318 316 319 320 326 326 326 330 333 333 333 332 337 335 332
302 301 299 299 300 300 301 312 309 310 312 313 315 313 315 315 315 318 321 323 326 323 316 320 320 319 320 320 319 312 316 315 318 324 324 327 329 339 338 334 333 333 336 334
302 301 300 298 300 300 300 313 311 307 311 312 313 311 312 314 315 316 316 318 326 325 317 321 322 321 320 321 319 318 315 316 320 322 323 326 333 333 337 336 329 330 332 332
303 302 300 298 299 300 300 311 311 310 309 308 311 312 310 312 314 313 315 320 321 321 325 321 319 322 324 325 327 330 326 329 324 322 323 327 330 333 334 328 329 332 333 334
303 302 300 298 299 299 300 311 311 311 310 307 309 313 310 311 311 313 318 318 319 323 320 321 321 328 325 326 331 324 330 327 328 332 329 329 330 327 325 329 332 334 335 336
303 301 300 299 298 299 300 309 310 309 310 308 308 310 311 312 311 313 315 319 319 321 320 320 320 325 322 325 326 325 327 326 327 326 328 328 329 325 325 325 327 330 332 334
303 301 300 299 298 299 299 307 310 311 312 312 315 315 314 312 313 313 314 317 317 317 320 319 316 321 324 323 321 323 324 324 325 326 325 325 328 326 324 326 326 327 327 329
304 302 300 299 298 299 299 306 310 311 311 312 316 316 315 315 314 314 314 315 316 318 317 317 315 319 320 318 321 324 325 322 321 322 324 326 326 324 325 326 328 327 326 326
302 302 301 299 298 299 299 304 309 310 311 311 310 316 316 315 314 314 315 315 316 318 318 314 317 320 319 317 324 325 327 326 326 324 326 326 325 324 325 323 324 325 327 329
301 301 301 300 298 298 306 312 312 309 310 307 314 312 316 315 314 315 314 315 315 316 315 315 318 320 319 314 317 326 324 324 325 325 324 324 324 324 324 323 323 325 326 327
301 301 301 299 298 299 305 308 312 310 305 314 310 310 315 315 315 315 315 315 315 315 315 314 317 319 317 315 318 324 322 325 325 324 322 324 324 324 323 328 328 328 325 324
301 302 300 298 298 299 306 308 306 305 311 314 312 309 315 315 315 315 315 315 312 315 311 310 315 313 315 313 319 320 320 324 322 318 320 322 325 327 327 327 327 330 330 329
302 300 298 299 303 314 314 309 305 305 307 311 310 313 311 314 315 317 318 317 314 316 313 315 308 310 321 319 318 317 319 323 319 324 324 325 325 327 325 326 328 327 330 330
300 298 308 312 312 311 306 310 310 308 309 311 311 312 309 312 316 314 317 314 312 314 313 315 315 319 320 321 320 321 321 323 324 323 322 323 326 326 326 325 326 326 325 324
299 307 309 309 305 310 311 310 310 309 310 311 309 309 310 316 319 316 316 315 314 316 316 316 321 317 318 322 321 322 323 322 322 323 325 325 325 324 324 324 326 325 325 326
307 307 308 307 308 308 312 312 312 309 311 312 311 309 316 315 317 317 315 317 316 316 317 318 316 317 318 322 321 321 321 322 321 323 324 324 324 324 324 324 324 323 324 324
308 309 307 308 309 310 310 311 309 312 313 313 312 312 312 313 312 312 316 315 316 318 317 319 313 318 319 319 321 321 321 321 321 322 322 321 322 323 323 323 323 322 322 321
309 310 309 309 310 310 310 311 310 311 313 314 314 314 313 312 315 313 313 316 318 318 317 314 320 318 317 317 320 321 321 320 320 319 319 319 320 321 321 321 321 321 321 320
309 310 311 310 307 309 309 310 311 314 314 315 317 312 314 316 314 318 317 317 318 315 314 319 318 320 319 319 317 320 318 318 317 316 316 318 320 320 321 321 321 320 319 317
310 310 310 310 310 313 315 315 316 316 317 313 314 316 317 312 315 318 315 316 313 317 319 319 318 318 320 320 320 319 319 318 319 319 318 319 321 320 321 321 320 318 316 314

GFSNW_850_thetae_060.txt.gz
Theta_e
303 301 301 301 302 301 303 306 310 312 309 309 305 308 310 314 314 315 315 316 316 317 317 317 318 320 322 321 322 317 315 313 315 318 319 320 319 318 316 317 319 319 320 324
304 301 301 301 302 301 301 304 309 311 311 308 307 308 311 313 312 313 313 315 315 314 316 317 317 319 321 320 326 326 316 314 316 317 316 319 324 319 315 313 316 323 324 324
306 302 301 301 302 300 301 306 316 314 312 311 309 311 312 312 314 313 312 314 315 316 316 316 317 318 319 321 323 321 319 312 315 316 317 319 327 325 321 320 322 321 322 324
308 302 301 301 301 300 303 307 311 316 312 312 310 311 312 313 314 314 314 313 314 314 314 316 317 321 319 319 320 323 316 321 321 321 318 323 325 325 324 324 322 326 325 325
308 302 301 300 301 300 311 309 314 315 313 315 313 312 314 314 314 313 315 315 315 313 314 313 316 322 320 320 319 320 319 324 324 323 321 325 326 325 325 325 323 327 329 330
309 303 301 300 301 300 307 312 313 313 313 313 313 313 314 316 316 317 316 319 318 317 319 320 322 322 321 320 321 318 320 320 324 326 325 324 322 321 325 327 327 329 331 328
311 303 301 300 300 299 300 306 311 313 313 313 315 315 315 315 317 316 319 319 321 323 323 323 321 320 319 318 318 317 317 320 324 327 324 327 321 327 328 333 336 334 334 331
309 306 301 300 300 300 299 302 309 311 310 314 314 314 314 316 317 319 321 322 322 322 321 317 317 317 317 319 318 316 313 315 319 325 324 325 330 337 338 338 332 332 332 332
309 304 301 300 299 300 299 306 310 309 310 312 314 313 312 313 313 317 319 322 325 322 316 317 319 319 319 320 317 314 315 312 317 324 323 326 335 333 332 334 331 330 331 332
308 304 301 300 298 299 299 304 311 309 309 309 313 310 310 311 313 314 314 317 324 322 315 318 319 319 318 320 318 319 316 316 317 318 320 323 331 329 330 333 327 328 331 333
310 305 302 300 298 299 299 303 310 310 308 306 307 311 311 310 312 311 314 319 320 319 323 318 317 320 324 326 326 329 327 329 323 319 321 324 328 328 333 328 328 332 333 334
311 304 302 300 298 298 299 304 310 310 310 308 307 307 311 310 310 311 315 318 318 321 320 319 320 326 323 324 329 324 330 326 327 329 327 326 329 326 325 325 325 328 332 334
311 304 302 300 299 298 299 303 308 310 310 309 308 306 309 312 311 311 313 317 319 320 320 318 318 324 320 324 324 325 325 325 325 326 327 327 328 326 325 324 325 325 327 328
310 305 302 300 299 298 299 300 308 310 311 311 312 315 309 312 311 313 314 315 317 316 320 318 315 320 322 323 321 322 324 323 324 324 322 323 327 327 324 326 327 327 327 326
309 304 301 300 299 298 299 299 306 310 310 310 313 315 314 313 314 313 314 315 315 317 316 316 316 317 320 317 320 323 323 322 319 320 321 325 324 326 325 324 324 325 325 328
308 304 302 300 300 298 298 301 304 310 310 310 306 315 315 315 314 314 314 315 315 317 317 313 315 319 318 317 323 324 325 324 324 323 325 325 324 324 325 323 323 324 325 326
307 302 302 301 300 298 299 308 310 309 310 309 309 310 315 314 314 314 314 314 315 315 314 313 316 318 317 313 316 324 323 324 323 324 324 323 323 324 323 323 325 328 327 326
302 301 301 301 300 298 299 304 309 310 309 308 309 308 313 314 314 314 314 314 314 314 313 313 315 317 315 315 315 322 323 323 324 324 321 319 322 324 325 326 327 328 328 326
301 301 301 301 299 298 301 306 308 307 305 313 309 309 313 314 313 314 315 314 310 313 309 309 313 311 314 312 318 317 322 322 322 320 319 320 322 323 326 325 326 327 329 330
301 301 300 299 299 302 310 311 307 306 306 309 310 311 311 314 313 315 316 316 312 314 312 313 307 310 319 320 320 317 317 319 321 320 323 323 325 326 325 326 326 326 326 328
301 299 300 307 310 312 307 306 307 305 308 309 311 311 309 314 314 312 315 311 310 313 312 313 315 317 318 321 320 320 321 321 324 323 324 325 325 325 325 325 325 325 324 327
300 304 308 311 310 308 309 309 309 307 307 309 308 310 311 315 317 314 314 314 312 314 314 314 320 316 317 321 321 323 324 323 322 323 324 324 324 324 324 324 323 323 324 325
304 307 308 306 307 307 311 311 310 309 310 310 308 307 313 315 317 315 313 315 314 314 315 317 315 316 317 321 321 321 321 322 322 322 322 323 323 323 323 323 323 323 323 322
307 308 308 307 308 308 308 310 311 312 311 311 309 311 310 311 311 311 316 313 314 316 316 317 312 317 318 318 319 321 321 321 321 321 321 321 321 322 322 322 321 321 321 320
308 309 309 308 309 310 310 310 310 310 312 311 311 311 313 310 314 311 311 316 318 316 316 313 319 317 317 318 320 320 319 318 318 319 319 320 319 320 320 321 320 320 319 318
308 309 310 310 307 307 308 310 310 310 312 313 314 311 314 314 312 315 314 314 316 314 312 317 320 319 319 317 319 319 318 318 318 318 318 318 320 320 320 320 319 318 316 315
309 310 310 310 309 309 313 311 312 314 315 312 312 315 315 310 314 317 314 315 312 315 318 317 317 318 319 319 319 316 318 318 319 318 318 319 321 321 320 320 318 315 314 312

GFSNW_850_thetae_063.txt.gz
Theta_e
310 309 307 302 302 302 302 304 309 312 307 309 307 313 314 313 315 314 316 317 317 316 317 320 321 323 324 321 323 322 321 324 325 323 322 322 325 327 329 327 331 329 330 327
311 312 307 302 301 302 300 302 306 310 311 312 313 311 313 313 314 315 315 317 317 318 319 321 320 321 320 321 327 327 321 324 325 326 323 323 326 324 325 327 330 335 331 329
312 312 307 302 301 301 300 304 319 312 309 310 311 314 316 316 314 314 313 314 316 318 319 319 320 321 321 320 323 321 321 323 327 325 326 325 330 326 324 329 332 333 331 333
312 311 306 301 301 301 300 306 313 315 316 314 313 314 315 316 316 315 314 316 315 318 321 319 320 323 323 321 321 326 326 332 327 326 324 325 327 329 327 330 332 332 333 333
314 311 306 301 300 301 306 310 315 314 314 315 316 314 318 317 318 317 318 317 318 317 320 322 321 324 325 324 324 326 327 335 331 330 327 329 328 327 328 328 328 331 334 334
313 310 306 301 301 300 302 308 311 312 315 316 316 317 317 317 317 318 316 317 319 316 318 318 322 322 322 323 325 327 330 331 335 328 331 329 329 327 327 331 333 336 335 337
313 311 309 301 301 300 299 301 306 312 317 316 318 317 316 316 317 319 319 320 324 322 322 322 320 320 320 322 322 321 328 333 333 331 331 330 328 338 336 340 339 338 339 339
313 311 309 301 300 300 299 299 306 309 313 313 316 315 316 315 317 318 321 321 322 321 320 323 324 323 322 322 320 322 321 327 328 330 333 330 337 340 342 343 338 336 338 338
313 311 306 301 300 299 300 299 307 308 309 312 312 314 312 316 317 322 320 320 324 320 322 323 325 323 323 324 322 320 322 324 325 330 330 329 338 334 333 336 341 334 335 337
313 310 305 303 300 298 299 299 306 309 308 307 311 313 312 311 315 318 315 317 323 321 322 323 324 322 322 324 323 328 326 326 325 325 325 330 334 331 332 342 336 333 334 335
312 310 307 303 301 298 299 299 306 308 309 307 306 307 308 310 311 316 316 322 324 326 328 324 324 325 328 330 330 334 334 333 328 325 327 326 330 330 338 333 330 330 332 333
312 311 307 302 301 299 298 298 306 309 309 309 307 306 306 306 308 309 312 320 321 322 327 326 328 332 331 332 336 329 337 334 338 337 333 331 330 328 327 326 326 327 328 329
312 311 309 303 300 299 298 298 304 308 309 309 308 307 307 309 311 311 313 316 318 318 319 322 327 331 327 332 329 331 331 328 334 331 331 330 329 329 327 326 326 328 328 328
312 311 308 304 301 299 298 298 300 308 309 311 310 315 312 310 310 311 313 315 316 316 319 321 323 326 325 328 327 327 328 327 330 327 326 327 328 329 327 326 327 327 328 329
311 311 308 302 301 299 298 298 299 304 308 311 310 311 314 312 312 313 314 315 314 316 319 322 323 321 325 324 326 328 327 326 324 323 325 328 328 325 325 326 326 327 329 329
311 310 304 301 301 300 298 299 300 303 309 309 313 312 315 314 313 314 314 314 314 316 318 318 317 319 321 326 328 327 326 323 322 326 324 323 324 324 324 323 324 326 328 328
310 309 304 302 301 300 299 304 308 306 309 309 309 314 314 313 313 313 313 314 314 314 314 316 320 320 319 322 323 327 325 324 323 323 324 324 323 325 324 325 325 326 328 327
310 307 302 302 301 300 299 300 302 308 308 307 315 315 314 313 314 315 313 313 313 314 314 313 319 319 318 321 318 320 324 323 322 323 323 323 321 321 322 325 325 327 329 329
307 302 301 302 300 300 299 301 306 308 305 312 312 314 318 313 313 313 315 313 317 313 317 315 316 319 319 319 321 321 321 323 325 321 319 322 323 324 324 326 327 328 329 328
302 301 301 300 299 299 307 307 305 304 306 308 312 311 317 314 314 317 319 316 319 320 318 314 316 318 320 320 321 319 317 318 319 322 325 325 327 327 326 326 325 326 327 327
302 302 299 301 304 310 310 306 306 305 308 308 311 311 314 313 318 319 316 319 316 320 320 320 320 322 322 320 321 321 320 320 321 323 324 324 325 325 326 325 324 325 325 326
301 301 308 310 311 310 309 312 311 309 307 308 310 311 311 315 316 319 316 320 317 319 318 320 322 323 319 320 321 321 322 322 322 323 324 324 324 324 323 321 321 321 321 324
300 308 308 307 306 310 312 314 314 313 311 309 308 310 311 316 317 318 320 319 319 317 320 320 323 319 318 320 321 321 321 322 322 322 322 322 323 322 322 322 322 322 322 321
306 308 309 308 310 310 313 313 313 312 310 310 308 311 313 312 317 318 318 318 319 320 320 320 322 319 318 319 320 320 321 321 321 321 320 320 321 322 321 321 321 320 320 319
307 308 309 309 309 310 310 310 311 310 311 309 311 312 315 316 318 316 318 320 320 321 321 322 320 316 318 320 320 320 318 318 318 318 318 319 320 321 321 320 320 318 317 316
307 308 311 311 309 310 309 309 310 310 310 310 312 316 318 318 318 317 316 316 318 321 320 318 318 318 317 319 318 317 317 318 318 318 317 316 317 320 320 319 318 317 315 313
309 311 310 311 311 310 311 309 310 310 312 317 316 318 318 315 319 319 319 321 321 318 318 317 319 318 318 319 316 313 315 315 318 318 318 319 320 321 320 319 316 314 312 313

GFSNW_850_thetae_069.txt.gz
Theta_e
318 317 317 315 315 314 307 308 314 316 313 316 315 316 317 317 319 319 321 321 321 323 324 324 325 326 327 328 327 326 327 328 328 329 329 329 329 329 329 330 331 331 333 331
317 316 316 315 312 304 302 310 310 315 313 318 319 317 316 317 318 319 320 320 321 321 321 323 324 327 326 328 329 329 328 327 328 328 328 329 328 329 330 331 331 333 333 334
317 317 316 315 312 305 302 309 316 318 315 316 318 320 318 317 316 317 318 320 320 321 321 323 324 326 326 326 329 325 331 329 328 327 329 329 329 328 329 329 332 331 331 331
317 316 316 315 311 305 302 312 316 321 323 319 318 318 319 321 321 319 319 320 319 320 322 322 323 324 325 325 324 329 330 331 330 329 328 330 329 328 328 329 330 330 334 343
316 316 315 315 310 304 306 314 318 320 320 322 323 319 321 322 324 324 323 323 321 322 322 322 322 324 325 326 327 328 331 334 335 331 329 329 328 328 329 329 329 329 330 338
316 316 315 315 312 303 307 308 309 315 319 322 324 322 320 322 322 323 322 323 323 323 323 322 321 322 325 327 328 329 330 332 335 331 329 329 329 328 328 329 329 330 338 346
316 315 315 315 312 302 306 307 305 313 319 322 322 322 321 322 323 323 324 323 326 327 327 324 322 322 324 326 327 327 330 332 333 331 334 338 338 337 332 332 339 339 344 343
316 315 315 314 312 303 301 307 306 312 319 320 321 321 320 321 322 324 324 325 326 326 325 326 325 325 326 326 326 327 327 330 329 330 330 331 338 339 337 335 343 342 343 344
316 315 314 313 311 302 300 306 306 307 315 318 316 318 320 322 322 324 323 325 324 325 328 326 327 327 326 326 326 328 328 330 330 329 330 331 344 340 339 340 343 341 342 343
316 315 314 313 309 303 300 306 304 307 312 313 314 317 319 318 320 324 324 324 323 323 328 326 327 327 328 327 328 330 328 329 326 326 327 328 338 337 339 339 343 338 338 339
315 314 314 313 308 305 300 306 304 305 309 312 312 313 314 315 318 322 321 324 325 323 327 327 327 328 328 328 329 329 330 330 329 327 329 328 335 334 343 339 336 336 336 336
315 314 314 313 309 305 301 305 306 307 308 310 311 310 311 312 313 314 319 328 325 326 328 328 328 326 326 327 327 333 329 329 340 341 341 337 334 334 332 331 333 333 333 333
315 314 313 312 309 305 302 305 304 303 306 311 313 313 313 313 313 313 315 325 324 327 326 327 326 330 329 328 330 329 333 334 330 331 334 333 333 332 331 330 331 331 331 332
315 314 313 312 311 310 305 306 305 303 305 311 315 314 314 314 315 314 314 315 318 321 322 323 326 327 326 327 330 334 332 331 331 332 328 328 329 330 330 330 330 331 331 331
314 314 313 312 312 308 304 304 305 304 304 312 314 313 312 314 315 315 315 316 319 318 320 322 324 323 325 325 324 327 328 331 330 332 330 329 332 330 329 329 330 330 331 332
314 313 313 312 311 307 302 307 307 305 302 308 316 316 317 315 315 315 317 317 318 317 318 319 319 322 325 324 327 329 328 325 327 330 327 327 327 328 327 326 329 330 331 333
313 312 312 311 308 303 307 308 308 307 302 311 314 317 317 315 315 316 317 317 316 316 317 318 318 321 321 323 325 327 327 326 326 325 324 323 325 325 324 325 326 329 331 333
312 311 311 308 304 302 305 304 303 304 308 310 316 319 319 315 316 317 317 317 317 316 317 319 320 321 322 323 327 327 325 325 323 322 323 323 323 324 325 326 327 328 329 332
311 310 308 303 302 307 308 304 300 301 309 312 313 319 319 317 317 318 318 316 317 318 318 318 319 321 323 324 325 325 324 323 322 323 322 322 323 325 325 326 326 329 331 332
310 307 304 309 309 306 303 304 309 307 308 309 312 316 321 318 317 319 318 317 321 321 319 320 320 319 325 323 324 323 323 323 322 322 321 324 323 325 325 327 329 329 329 329
308 306 304 309 306 306 309 311 311 312 313 310 310 313 318 317 320 320 319 321 321 321 324 320 323 321 325 324 323 324 324 323 322 323 324 324 325 324 327 328 326 324 325 327
309 306 307 308 308 312 311 312 312 313 314 310 310 311 317 319 320 322 320 321 322 322 324 322 322 331 327 325 325 326 326 325 325 325 325 324 325 325 325 324 325 321 318 318
306 306 309 311 312 316 312 313 314 314 313 312 310 314 317 321 320 320 321 321 322 321 321 321 328 328 327 327 325 326 326 326 325 325 324 324 324 324 323 323 323 324 325 324
309 310 317 313 313 314 315 315 315 314 314 314 311 313 318 320 320 321 320 321 322 321 321 320 326 326 326 326 325 325 325 325 324 324 324 324 323 323 323 323 323 323 323 323
310 312 315 313 313 313 313 313 313 314 314 314 311 313 318 321 320 319 320 320 319 320 320 323 327 326 326 326 326 325 324 324 324 324 325 325 324 324 324 324 323 323 322 322
311 312 313 313 314 314 313 313 314 313 313 314 312 316 319 318 318 318 319 318 318 319 321 322 327 327 326 325 324 324 323 323 324 323 323 323 323 324 325 324 323 321 321 321
311 312 312 313 313 313 312 311 310 312 314 316 314 316 317 318 317 318 318 318 320 321 321 322 324 326 325 324 323 318 320 321 320 321 323 323 323 324 323 322 322 321 320 319

GFSNW_850_thetae_072.txt.gz
Theta_e
318 318 317 317 317 316 315 311 315 317 316 318 319 319 319 318 319 320 322 322 322 323 323 324 326 326 327 327 329 326 327 327 329 328 330 331 329 330 329 330 333 333 336 333
318 317 317 316 316 313 309 311 314 313 315 316 320 321 321 319 319 320 320 321 322 323 322 323 324 324 325 327 328 331 332 327 327 329 329 330 328 328 329 333 335 335 336 333
317 317 317 316 315 313 306 310 316 316 318 315 318 320 321 321 319 319 318 320 321 322 322 323 323 323 324 326 327 324 330 331 337 328 330 331 332 329 329 331 335 334 331 346
317 317 316 315 315 312 304 313 316 317 322 323 323 322 320 321 322 322 318 321 320 320 321 322 322 323 324 325 323 326 330 337 333 329 328 328 329 330 329 329 330 331 334 349
317 316 316 316 315 310 305 314 314 317 318 320 323 322 322 321 321 324 325 324 323 322 323 322 323 323 324 326 328 327 331 336 334 332 330 331 329 330 331 330 328 328 330 344
317 317 316 315 315 310 312 311 310 310 314 319 324 324 324 321 322 322 323 325 325 324 322 325 324 322 323 325 329 331 333 336 336 335 332 332 331 330 335 330 331 335 338 346
317 316 316 316 315 313 306 309 310 309 315 318 322 324 323 324 323 323 322 323 324 326 328 326 325 323 323 323 327 331 331 333 336 335 336 334 333 335 340 339 345 346 345 339
316 316 315 315 315 313 306 307 309 309 314 317 321 322 323 321 322 324 324 324 326 326 326 327 327 326 326 325 326 329 331 333 332 333 331 332 336 335 338 345 348 344 335 340
317 317 315 315 314 312 305 307 309 308 310 314 317 318 320 322 321 323 324 325 325 325 327 329 328 326 324 325 326 327 327 331 330 333 332 333 341 331 328 335 351 341 342 342
317 317 316 315 314 310 304 305 308 307 309 310 313 317 318 318 319 321 324 324 325 324 326 331 330 329 329 327 328 332 329 332 329 329 327 328 338 335 336 335 347 339 339 339
317 316 315 314 313 309 306 306 308 307 307 308 310 313 315 316 318 321 320 323 326 326 329 328 330 332 331 330 331 333 334 334 330 331 330 331 336 338 345 342 337 336 337 336
317 316 314 314 313 310 308 306 308 307 308 309 310 309 310 311 313 315 316 323 323 327 326 330 329 332 331 332 332 332 332 330 340 339 341 338 334 334 333 334 334 333 333 334
315 315 315 313 312 309 306 306 308 308 307 308 310 312 313 313 312 313 315 321 322 325 326 325 328 331 327 330 330 329 330 329 334 332 337 335 332 331 331 331 331 331 332 333
315 315 314 313 313 310 310 309 309 309 306 309 314 315 315 315 315 316 316 317 317 320 323 323 324 329 325 325 327 332 329 325 324 333 333 331 332 331 330 331 332 332 331 332
315 315 314 313 312 312 311 310 308 309 306 309 309 311 315 315 314 317 317 317 318 320 321 322 322 322 326 326 326 330 327 327 333 335 332 332 333 330 328 328 329 330 329 330
315 314 314 313 312 312 309 309 310 308 307 306 312 314 315 318 315 316 317 318 319 320 319 320 321 321 323 323 324 327 329 328 324 329 325 327 327 328 327 326 325 327 328 330
315 314 313 313 312 311 308 311 310 308 305 308 314 316 316 318 316 316 316 318 319 318 318 319 319 319 321 323 321 330 328 328 329 327 325 325 325 324 323 325 325 326 328 329
314 313 312 312 311 307 307 309 305 304 308 309 313 318 319 317 316 316 317 317 318 318 317 317 319 319 321 323 324 328 327 326 324 323 322 322 323 325 325 325 325 325 329 332
313 312 311 309 307 308 311 308 306 302 309 313 312 314 320 317 316 317 319 319 319 317 319 318 320 320 321 325 323 327 326 325 323 324 322 322 324 324 325 326 330 331 331 332
311 311 309 309 311 309 307 304 307 308 310 310 311 313 317 318 317 320 320 318 319 321 322 318 319 320 324 325 326 326 325 323 320 321 322 324 323 325 327 329 330 330 328 328
310 308 308 310 309 308 308 312 313 313 313 312 311 310 312 316 320 320 318 324 321 321 322 322 322 325 324 325 325 324 322 321 320 321 321 323 325 326 327 326 326 324 322 322
310 310 309 309 307 312 313 314 314 315 317 315 311 310 311 317 320 322 321 322 324 322 325 327 323 334 328 325 325 324 323 323 323 323 325 325 325 325 325 326 325 323 319 318
308 308 310 312 312 315 315 315 316 317 315 314 312 312 312 319 321 323 324 321 325 323 324 322 331 330 328 326 324 324 324 324 323 323 324 325 325 324 325 324 325 326 324 323
309 310 313 314 315 315 316 316 317 316 315 315 313 312 315 317 320 321 322 321 322 324 322 324 333 329 328 324 322 323 324 324 324 325 325 325 325 325 324 324 324 324 324 323
311 313 315 315 314 315 315 315 315 316 316 315 313 312 314 319 322 321 322 324 323 321 322 332 329 328 326 325 326 325 323 324 325 325 325 325 325 321 321 325 324 324 322 322
311 313 315 314 315 315 315 315 315 316 315 314 312 313 315 321 321 320 320 320 318 321 329 329 328 327 327 326 325 325 325 325 325 324 325 325 325 322 324 325 324 322 322 321
310 314 314 315 315 316 316 315 315 315 315 316 314 314 316 318 319 319 320 319 325 322 324 327 327 327 327 326 325 321 321 321 320 320 321 322 324 324 324 322 323 322 320 319

GFSNW_850_thetae_075.txt.gz
Theta_e
317 318 318 317 317 317 315 311 315 318 318 318 318 318 319 319 319 318 319 319 320 321 322 322 322 322 324 325 324 324 329 328 325 325 326 328 327 327 326 325 325 327 326 326
317 318 317 317 316 315 312 309 313 315 316 316 315 316 319 320 321 319 318 319 319 320 321 321 323 323 323 324 324 328 327 329 329 327 325 325 326 328 327 326 324 324 327 332
317 317 317 317 315 315 309 307 315 316 315 318 319 318 319 320 320 322 322 319 318 318 319 320 322 323 323 323 323 326 326 328 334 331 330 329 328 329 327 324 327 326 327 339
316 317 316 316 316 315 308 311 317 315 319 317 319 322 323 322 321 320 324 325 321 320 319 320 320 321 322 323 323 326 327 329 333 329 330 329 328 328 328 327 327 331 329 346
317 316 316 316 316 315 309 310 312 311 312 314 317 320 323 325 322 323 324 323 324 324 324 323 323 321 320 322 324 326 331 333 334 335 332 330 332 333 333 336 339 336 339 344
316 316 316 317 316 315 311 313 311 311 311 313 316 321 324 325 324 323 323 323 323 324 325 326 327 326 325 322 321 330 332 330 331 335 333 332 332 345 345 345 339 344 348 346
316 317 316 316 316 315 312 310 309 311 311 312 315 318 322 323 324 323 323 323 324 325 325 326 327 327 326 325 324 329 332 330 330 334 336 336 333 334 342 340 341 339 337 340
316 317 316 316 315 315 314 310 307 310 311 311 313 317 318 319 321 323 322 325 325 324 325 327 328 327 326 325 325 329 325 327 326 333 331 331 342 333 336 338 333 338 336 333
316 316 316 315 315 314 314 310 309 310 310 310 311 311 314 318 318 320 320 321 323 324 325 326 329 331 330 328 325 325 325 324 326 330 334 335 342 331 331 330 339 336 338 332
316 316 317 316 315 314 311 306 308 308 309 309 309 310 312 313 316 319 321 318 320 324 327 330 331 330 330 333 332 335 334 332 329 330 331 341 337 330 331 336 340 339 336 339
316 316 317 316 315 314 311 309 309 309 309 309 308 309 310 313 314 318 317 319 325 326 330 330 330 332 330 332 331 330 333 333 335 335 334 338 336 336 343 339 337 337 336 335
315 316 315 315 314 313 311 308 309 310 309 308 308 306 308 310 311 311 313 319 325 325 328 328 329 328 330 329 333 326 334 333 334 333 336 334 333 335 334 333 333 333 334 333
315 315 315 315 314 313 311 310 309 310 310 309 308 309 308 310 311 310 311 318 320 322 320 326 326 329 326 331 330 330 328 326 334 332 334 333 332 331 331 331 332 332 332 333
315 315 315 315 314 313 311 312 312 309 310 309 310 310 314 315 315 314 313 313 317 317 317 321 324 328 326 329 325 328 329 328 328 331 332 333 329 330 331 332 331 331 330 333
314 315 316 314 314 313 313 313 313 310 309 308 308 307 314 315 315 315 316 316 317 318 321 324 325 322 326 326 325 331 327 328 333 332 327 327 324 327 327 327 327 330 328 334
316 314 315 314 314 313 312 309 311 310 309 307 308 310 313 315 316 315 315 317 317 318 320 321 320 320 324 323 326 329 327 326 328 331 329 326 326 327 325 324 326 327 326 331
313 315 314 314 313 313 311 311 312 310 308 306 311 315 317 314 316 316 316 317 318 318 319 319 319 320 320 324 326 329 324 325 328 327 325 328 325 324 323 325 324 325 327 331
314 314 314 313 313 312 312 310 308 305 307 309 312 314 317 318 318 316 315 316 318 320 319 317 319 319 322 321 330 327 325 325 325 325 323 321 322 325 327 328 329 331 332 330
314 313 313 312 311 310 311 311 308 305 307 311 314 313 317 318 320 317 317 317 321 318 320 319 319 321 323 328 327 328 327 327 324 323 322 324 324 325 324 324 325 326 327 330
312 312 312 310 311 310 308 307 307 306 307 307 311 312 315 313 320 320 322 320 319 322 319 319 320 319 326 326 326 326 324 323 322 320 321 323 324 326 326 323 321 326 327 328
311 312 309 310 310 309 309 311 312 312 313 312 312 311 311 313 319 319 320 325 323 324 324 322 323 329 329 326 325 323 321 321 320 320 320 324 326 326 326 326 323 320 320 321
312 309 310 309 308 310 313 315 314 315 316 316 315 313 310 310 314 319 324 324 326 327 327 327 328 331 325 324 324 323 322 323 323 324 324 325 325 324 324 324 325 324 321 324
309 310 311 311 311 313 315 315 316 318 317 316 314 315 312 316 318 324 325 326 325 323 329 326 331 329 327 325 325 324 324 324 324 325 325 326 326 325 325 326 326 325 323 324
311 310 310 313 314 315 315 316 318 316 316 316 315 314 315 316 321 324 323 322 325 326 324 329 330 329 327 325 325 325 324 323 325 325 326 325 324 324 324 322 320 325 324 323
311 313 313 314 314 314 315 316 316 316 316 316 314 314 312 318 325 324 324 326 326 325 330 332 329 327 325 325 325 324 323 323 324 324 325 325 325 323 322 320 318 321 323 322
311 313 314 314 315 315 315 316 315 316 316 316 313 314 316 322 323 322 323 323 323 328 332 329 327 326 326 325 325 325 324 324 323 323 323 323 324 324 323 321 322 322 322 321
310 312 314 314 314 316 316 316 316 316 316 318 316 315 314 320 320 322 323 324 327 330 329 328 327 326 326 325 323 321 321 320 321 321 321 320 319 322 323 322 323 322 321 319